GW4349 Weather Reports


Display with metric or nautical units.
time (UTC)temp
F
wind
direction
speed
MPH
gust
MPH
rain 1hr
in
rain 24hr
in
rain mn
in
humidity
%
barometer
mb
20260507120443 54 89 0.0 2.0 0.00 0.00 0.00 98 1018.3
20260507115940 54 47 1.0 2.0 0.00 0.00 0.00 98 1018.3
20260507115436 54 95 0.0 2.0 0.00 0.00 0.00 98 1018.2
20260507114932 54 102 2.0 3.0 0.00 0.00 0.00 98 1018.2
20260507114428 53 70 1.0 2.0 0.00 0.00 0.00 98 1018.4
20260507113926 53 145 0.0 2.0 0.00 0.00 0.00 98 1018.4
20260507113423 53 103 0.0 2.0 0.00 0.00 0.00 98 1018.2
20260507112920 53 108 2.0 3.0 0.00 0.00 0.00 98 1018.2
20260507112417 53 70 0.0 2.0 0.00 0.00 0.00 98 1018.4
20260507111914 53 68 1.0 2.0 0.00 0.00 0.00 98 1018.3
20260507111412 53 120 2.0 2.0 0.00 0.00 0.00 98 1018.2
20260507110908 53 124 2.0 2.0 0.00 0.00 0.00 98 1018.3
20260507110404 53 78 0.0 2.0 0.00 0.00 0.00 98 1018.2
20260507105901 53 87 2.0 2.0 0.00 0.00 0.00 98 1018.4
20260507105357 53 106 2.0 2.0 0.00 0.00 0.00 98 1018.4
20260507104854 53 105 1.0 2.0 0.00 0.00 0.00 98 1018.4
20260507104351 52 118 1.0 2.0 0.00 0.00 0.00 98 1018.5
20260507103847 52 122 1.0 3.0 0.00 0.00 0.00 98 1018.7
20260507103344 53 124 0.0 2.0 0.00 0.00 0.00 98 1018.5
20260507102840 52 131 0.0 2.0 0.00 0.00 0.00 97 1018.7
20260507102336 52 128 1.0 2.0 0.00 0.00 0.00 97 1018.7
20260507101833 52 129 0.0 2.0 0.00 0.00 0.00 97 1018.6
20260507101327 52 97 2.0 2.0 0.00 0.00 0.00 97 1018.8
20260507100824 52 66 2.0 2.0 0.00 0.00 0.00 97 1018.8
20260507100323 52 136 1.0 2.0 0.00 0.00 0.00 97 1018.8
20260507095821 52 111 1.0 2.0 0.00 0.00 0.00 97 1018.9
20260507095316 52 107 2.0 2.0 0.00 0.00 0.00 97 1018.9
20260507094814 52 95 0.0 2.0 0.00 0.00 0.00 97 1019.0
20260507094310 51 99 0.0 2.0 0.00 0.00 0.00 97 1019.0
20260507093807 52 111 2.0 2.0 0.00 0.00 0.00 97 1018.9
20260507093306 52 114 0.0 2.0 0.00 0.00 0.00 97 1018.9
20260507092803 52 80 0.0 2.0 0.00 0.00 0.00 97 1018.9
20260507092259 52 121 0.0 3.0 0.00 0.00 0.00 97 1018.9
20260507091756 52 81 0.0 2.0 0.00 0.00 0.00 97 1019.1
20260507091253 52 103 0.0 2.0 0.00 0.00 0.00 97 1019.1
20260507090748 52 95 1.0 2.0 0.00 0.00 0.00 97 1019.2
20260507090245 52 140 1.0 2.0 0.00 0.00 0.00 97 1019.3
20260507085742 52 110 2.0 2.0 0.00 0.00 0.00 97 1019.1
20260507085239 52 112 2.0 2.0 0.00 0.00 0.00 97 1019.2
20260507084736 52 111 0.0 2.0 0.00 0.00 0.00 97 1019.1
20260507084232 52 164 0.0 2.0 0.00 0.00 0.00 97 1019.4
20260507083730 53 135 0.0 2.0 0.00 0.00 0.00 97 1019.4
20260507083226 52 102 0.0 2.0 0.00 0.00 0.00 97 1019.5
20260507082722 53 134 2.0 2.0 0.00 0.00 0.00 97 1019.3
20260507082218 53 52 1.0 2.0 0.00 0.00 0.00 96 1019.5
20260507081715 53 98 1.0 2.0 0.00 0.00 0.00 96 1019.6
20260507081211 53 100 2.0 2.0 0.00 0.00 0.00 96 1019.6
20260507080708 53 149 2.0 3.0 0.00 0.00 0.00 96 1019.8
20260507080204 53 108 1.0 2.0 0.00 0.00 0.00 96 1019.7
20260507075700 54 95 2.0 2.0 0.00 0.00 0.00 96 1019.7
20260507075156 53 85 1.0 2.0 0.00 0.00 0.00 96 1019.8
20260507074652 53 78 0.0 2.0 0.00 0.00 0.00 96 1019.8
20260507074151 53 96 1.0 3.0 0.00 0.00 0.00 96 1019.8
20260507073647 53 113 1.0 2.0 0.00 0.00 0.00 96 1019.7
20260507073143 53 115 1.0 2.0 0.00 0.00 0.00 96 1019.8
20260507072641 53 114 2.0 2.0 0.00 0.00 0.00 96 1019.9
20260507072138 54 113 2.0 2.0 0.00 0.00 0.00 96 1019.9
20260507071636 54 110 2.0 2.0 0.00 0.00 0.00 96 1019.9
20260507071132 54 80 2.0 2.0 0.00 0.00 0.00 96 1019.8
20260507070629 54 86 2.0 3.0 0.00 0.00 0.00 95 1019.8
20260507070126 54 133 2.0 2.0 0.00 0.00 0.00 95 1019.8
20260507065622 54 80 1.0 2.0 0.00 0.00 0.00 95 1019.9
20260507065119 54 96 2.0 3.0 0.00 0.00 0.00 95 1020.0
20260507064617 54 122 2.0 2.0 0.00 0.00 0.00 95 1019.9
20260507064116 54 63 2.0 2.0 0.00 0.00 0.00 95 1019.9
20260507063613 54 74 2.0 2.0 0.00 0.00 0.00 95 1020.1
20260507063110 54 91 2.0 2.0 0.00 0.00 0.00 94 1020.2
20260507062606 55 104 1.0 3.0 0.00 0.00 0.00 94 1020.1
20260507062104 55 110 1.0 2.0 0.00 0.00 0.00 94 1020.0
20260507061601 55 73 1.0 2.0 0.00 0.00 0.00 94 1019.8
20260507061100 55 61 2.0 2.0 0.00 0.00 0.00 94 1020.1
20260507060557 55 129 1.0 2.0 0.00 0.00 0.00 94 1020.1
20260507060053 55 119 2.0 2.0 0.00 0.00 0.00 94 1019.9
20260507055553 56 105 2.0 2.0 0.00 0.00 0.00 94 1020.1
20260507055050 56 121 2.0 2.0 0.00 0.00 0.00 94 1020.1
20260507054546 56 70 2.0 3.0 0.00 0.00 0.00 93 1019.9
20260507054043 56 88 2.0 2.0 0.00 0.00 0.00 93 1019.9
20260507053541 56 77 0.0 3.0 0.00 0.00 0.00 93 1020.2
20260507053040 56 117 1.0 2.0 0.00 0.00 0.00 92 1020.0
20260507052537 56 95 2.0 3.0 0.00 0.00 0.00 92 1020.0
20260507052033 57 105 2.0 2.0 0.00 0.00 0.00 92 1020.3
20260507051532 57 109 1.0 2.0 0.00 0.00 0.00 92 1020.0
20260507051028 57 59 2.0 3.0 0.00 0.00 0.00 92 1020.0
20260507050524 57 76 2.0 2.0 0.00 0.00 0.00 91 1020.1
20260507050021 57 56 1.0 2.0 0.00 0.00 0.00 91 1019.9
20260507045518 57 99 1.0 2.0 0.00 0.00 0.00 91 1020.1
20260507045015 57 100 1.0 2.0 0.00 0.00 0.00 91 1019.9
20260507044512 58 93 2.0 2.0 0.00 0.00 0.00 91 1020.1
20260507044008 58 94 2.0 2.0 0.00 0.00 0.00 90 1020.1
20260507043504 58 123 1.0 2.0 0.00 0.00 0.00 90 1019.8
20260507043001 58 117 0.0 2.0 0.00 0.00 0.00 89 1019.9
20260507042458 58 111 0.0 2.0 0.00 0.00 0.00 89 1019.9
20260507041953 59 106 1.0 2.0 0.00 0.00 0.00 88 1019.7
20260507041450 59 86 1.0 2.0 0.00 0.00 0.00 87 1019.8
20260507040947 60 140 2.0 2.0 0.00 0.00 0.00 87 1019.8
20260507040443 60 89 0.0 2.0 0.00 0.00 0.00 87 1019.8
20260507035939 60 111 2.0 2.0 0.00 0.00 0.00 87 1019.6
20260507035436 61 159 1.0 2.0 0.00 0.00 0.00 87 1019.8
20260507034933 61 181 2.0 3.0 0.00 0.00 0.00 87 1019.7
20260507034430 61 164 0.0 2.0 0.00 0.00 0.00 87 1019.6
20260507033928 61 169 0.0 2.0 0.00 0.00 0.00 87 1019.6
20260507033425 61 189 2.0 3.0 0.00 0.00 0.00 86 1019.8
20260507032922 61 133 0.0 3.0 0.00 0.00 0.00 86 1019.5
20260507032419 61 211 1.0 2.0 0.00 0.00 0.00 85 1019.3
20260507031915 61 137 1.0 3.0 0.00 0.00 0.00 85 1019.4
20260507031412 62 161 1.0 3.0 0.00 0.00 0.00 84 1019.4
20260507030908 62 211 1.0 3.0 0.00 0.00 0.00 83 1019.2
20260507030406 62 205 2.0 2.0 0.00 0.00 0.00 83 1019.3
20260507025902 62 151 1.0 4.0 0.00 0.00 0.00 82 1019.2
20260507025400 63 91 1.0 2.0 0.00 0.00 0.00 80 1019.2
20260507024858 63 164 1.0 2.0 0.00 0.00 0.00 79 1019.3
20260507024355 63 122 2.0 3.0 0.00 0.00 0.00 77 1019.0
20260507023850 64 202 0.0 2.0 0.00 0.00 0.00 76 1019.2
20260507023347 64 68 0.0 3.0 0.00 0.00 0.00 75 1019.0
20260507022845 64 154 2.0 2.0 0.00 0.00 0.00 76 1019.0
20260507022341 64 214 3.0 4.0 0.00 0.00 0.00 76 1019.1
20260507021837 64 138 1.0 3.0 0.00 0.00 0.00 76 1019.0
20260507021333 65 205 2.0 6.0 0.00 0.00 0.00 74 1018.9
20260507020831 65 196 2.0 4.0 0.00 0.00 0.00 72 1018.9
20260507020327 66 211 2.0 6.0 0.00 0.00 0.00 69 1018.7
20260507015824 67 103 0.0 4.0 0.00 0.00 0.00 70 1018.8
20260507015322 66 199 2.0 6.0 0.00 0.00 0.00 69 1018.9
20260507014819 68 195 3.0 5.0 0.00 0.00 0.00 67 1018.8
20260507014315 66 202 2.0 7.0 0.00 0.00 0.00 70 1018.8
20260507013812 67 175 2.0 8.0 0.00 0.00 0.00 68 1018.9
20260507013309 68 203 4.0 5.0 0.00 0.00 0.00 69 1018.9
20260507012807 69 7 0.0 3.0 0.00 0.00 0.00 68 1018.8
20260507012305 69 221 4.0 5.0 0.00 0.00 0.00 66 1018.9
20260507011800 68 224 4.0 6.0 0.00 0.00 0.00 69 1019.0
20260507011256 69 226 4.0 5.0 0.00 0.00 0.00 69 1018.8
20260507010755 69 178 0.0 7.0 0.00 0.00 0.00 69 1018.6
20260507010252 69 180 1.0 3.0 0.00 0.00 0.00 69 1018.6
20260507005749 69 198 1.0 4.0 0.00 0.00 0.00 69 1018.7
20260507005246 68 203 0.0 9.0 0.00 0.00 0.00 70 1018.8
20260507004742 68 236 4.0 7.0 0.00 0.00 0.00 70 1018.7
20260507004240 68 239 5.0 6.0 0.00 0.00 0.00 70 1018.7
20260507003736 69 197 4.0 7.0 0.00 0.00 0.00 68 1018.6
20260507003231 70 269 0.0 4.0 0.00 0.00 0.00 67 1018.8
20260507002728 69 252 1.0 6.0 0.00 0.00 0.00 68 1018.6
20260507002224 72 291 2.0 3.0 0.00 0.00 0.00 63 1018.7
20260507001721 71 225 6.0 6.0 0.00 0.00 0.00 64 1018.6
20260507001218 69 227 4.0 11.0 0.00 0.00 0.00 68 1018.6
20260507000714 71 228 4.0 8.0 0.00 0.00 0.00 63 1018.4
20260507000212 72 278 2.0 4.0 0.00 0.00 0.00 60 1018.6
20260506235707 72 272 2.0 4.0 0.00 0.00 0.00 60 1018.3
20260506235202 70 264 2.0 9.0 0.00 0.00 0.00 64 1018.3
20260506234700 69 234 7.0 13.0 0.00 0.00 0.00 64 1018.4
20260506234157 71 224 11.0 14.0 0.00 0.00 0.00 61 1018.2
20260506233654 70 212 2.0 11.0 0.00 0.00 0.00 63 1018.3
20260506233151 71 32 1.0 10.0 0.00 0.00 0.00 61 1018.2
20260506232647 72 238 2.0 9.0 0.00 0.00 0.00 60 1018.2
20260506232142 72 265 1.0 10.0 0.00 0.00 0.00 59 1018.3
20260506231640 72 236 3.0 12.0 0.00 0.00 0.00 59 1018.5
20260506231138 73 265 2.0 5.0 0.00 0.00 0.00 59 1018.4
20260506230635 72 242 2.0 8.0 0.00 0.00 0.00 61 1018.5
20260506230132 71 24 0.0 6.0 0.00 0.00 0.00 62 1018.5
20260506225628 70 233 6.0 11.0 0.00 0.00 0.00 64 1018.5
20260506225125 70 261 1.0 12.0 0.00 0.00 0.00 64 1018.5
20260506224621 73 245 1.0 4.0 0.00 0.00 0.00 60 1018.6
20260506224118 69 218 1.0 13.0 0.00 0.00 0.00 67 1018.8
20260506223614 72 269 0.0 6.0 0.00 0.00 0.00 61 1018.6
20260506223110 73 279 1.0 4.0 0.00 0.00 0.00 60 1018.8
20260506222607 71 208 2.0 5.0 0.00 0.00 0.00 63 1018.7
20260506222104 71 226 9.0 13.0 0.00 0.00 0.00 63 1018.7
20260506221602 70 256 4.0 11.0 0.00 0.00 0.00 65 1018.8
20260506221059 71 240 2.0 7.0 0.00 0.00 0.00 63 1018.7
20260506220555 71 269 3.0 12.0 0.00 0.00 0.00 62 1018.8
20260506220051 71 328 2.0 5.0 0.00 0.00 0.00 62 1018.8
20260506215548 71 230 2.0 10.0 0.00 0.00 0.00 63 1018.9
20260506215043 71 43 1.0 6.0 0.00 0.00 0.00 62 1019.0
20260506214541 70 222 6.0 13.0 0.00 0.00 0.00 64 1018.9
20260506214038 72 222 2.0 9.0 0.00 0.00 0.00 61 1018.9
20260506213536 73 275 2.0 7.0 0.00 0.00 0.00 60 1019.0
20260506213033 72 250 4.0 7.0 0.00 0.00 0.00 60 1019.1
20260506212529 72 246 2.0 7.0 0.00 0.00 0.00 60 1019.3
20260506212024 70 241 3.0 10.0 0.00 0.00 0.00 64 1019.2
20260506211520 71 233 9.0 10.0 0.00 0.00 0.00 62 1019.2
20260506211018 71 230 4.0 12.0 0.00 0.00 0.00 63 1019.1
20260506210514 71 249 6.0 7.0 0.00 0.00 0.00 63 1019.1
20260506210011 71 266 4.0 11.0 0.00 0.00 0.00 64 1019.3
20260506205508 71 147 2.0 9.0 0.00 0.00 0.00 63 1019.1
20260506205003 70 233 11.0 15.0 0.00 0.00 0.00 64 1019.3
20260506204502 69 235 7.0 15.0 0.00 0.00 0.00 64 1019.2
20260506203958 69 229 6.0 11.0 0.00 0.00 0.00 64 1019.3
20260506203456 70 256 5.0 13.0 0.00 0.00 0.00 62 1019.5
20260506202947 70 242 2.0 9.0 0.00 0.00 0.00 63 1019.7
20260506202444 71 225 2.0 5.0 0.00 0.00 0.00 62 1019.5
20260506201940 69 217 2.0 13.0 0.00 0.00 0.00 65 1019.5
20260506201438 71 212 0.0 10.0 0.00 0.00 0.00 63 1019.5
20260506200935 70 240 3.0 11.0 0.00 0.00 0.00 64 1019.3
20260506200431 70 327 2.0 6.0 0.00 0.00 0.00 62 1019.6
20260506195928 71 232 4.0 4.0 0.00 0.00 0.00 62 1019.5
20260506195425 71 266 0.0 4.0 0.00 0.00 0.00 61 1019.6
20260506194921 71 261 0.0 6.0 0.00 0.00 0.00 61 1019.9
20260506194418 71 234 2.0 6.0 0.00 0.00 0.00 61 1019.9
20260506193915 71 248 3.0 9.0 0.00 0.00 0.00 61 1019.7
20260506193412 72 261 2.0 5.0 0.00 0.00 0.00 60 1019.7
20260506192908 70 112 0.0 11.0 0.00 0.00 0.00 62 1019.9
20260506192405 72 211 2.0 10.0 0.00 0.00 0.00 60 1019.8
20260506191902 71 233 9.0 9.0 0.00 0.00 0.00 61 1019.8
20260506191358 71 262 4.0 10.0 0.00 0.00 0.00 62 1020.0
20260506190855 70 263 3.0 5.0 0.00 0.00 0.00 62 1019.9
20260506190352 71 216 5.0 9.0 0.00 0.00 0.00 62 1019.8
20260506185848 70 178 2.0 6.0 0.00 0.00 0.00 63 1019.9
20260506185345 69 266 2.0 11.0 0.00 0.00 0.00 65 1020.1
20260506184842 70 223 1.0 9.0 0.00 0.00 0.00 63 1020.0
20260506184339 70 194 2.0 6.0 0.00 0.00 0.00 62 1020.0
20260506183837 69 233 5.0 11.0 0.00 0.00 0.00 64 1020.2
20260506183332 70 216 4.0 9.0 0.00 0.00 0.00 63 1020.2
20260506182830 69 233 4.0 6.0 0.00 0.00 0.00 64 1020.2
20260506182326 69 227 8.0 11.0 0.00 0.00 0.00 64 1020.1
20260506181824 69 218 5.0 9.0 0.00 0.00 0.00 63 1020.2
20260506181322 70 54 0.0 5.0 0.00 0.00 0.00 63 1020.2
20260506180819 71 215 6.0 6.0 0.00 0.00 0.00 61 1020.3
20260506180315 70 299 1.0 7.0 0.00 0.00 0.00 61 1020.5
20260506175811 70 169 0.0 4.0 0.00 0.00 0.00 60 1020.4
20260506175308 69 230 3.0 5.0 0.00 0.00 0.00 62 1020.3
20260506174800 69 242 2.0 5.0 0.00 0.00 0.00 61 1020.4
20260506174258 69 275 2.0 8.0 0.00 0.00 0.00 59 1020.4
20260506173755 69 37 1.0 4.0 0.00 0.00 0.00 58 1020.4
20260506173252 70 268 0.0 4.0 0.00 0.00 0.00 58 1020.7
20260506172749 70 205 0.0 3.0 0.00 0.00 0.00 58 1020.7
20260506172245 69 341 2.0 2.0 0.00 0.00 0.00 60 1020.9
20260506171743 68 256 0.0 5.0 0.00 0.00 0.00 63 1020.8
20260506171240 68 310 2.0 5.0 0.00 0.00 0.00 62 1020.7
20260506170738 66 268 2.0 3.0 0.00 0.00 0.00 66 1020.7
20260506170234 68 227 1.0 3.0 0.00 0.00 0.00 64 1020.7
20260506165732 68 261 0.0 3.0 0.00 0.00 0.00 64 1020.8
20260506165229 68 21 1.0 4.0 0.00 0.00 0.00 62 1020.9
20260506164726 67 265 4.0 5.0 0.00 0.00 0.00 64 1020.8
20260506164223 66 330 2.0 4.0 0.00 0.00 0.00 65 1020.8
20260506163720 67 243 1.0 4.0 0.00 0.00 0.00 63 1020.8
20260506163215 66 260 2.0 3.0 0.00 0.00 0.00 64 1020.8
20260506162711 65 0 2.0 3.0 0.00 0.00 0.00 68 1020.8
20260506162208 65 219 2.0 4.0 0.00 0.00 0.00 68 1020.7
20260506161705 66 190 0.0 2.0 0.00 0.00 0.00 67 1020.8
20260506161202 65 230 4.0 4.0 0.00 0.00 0.00 69 1020.8
20260506160659 65 14 3.0 3.0 0.00 0.00 0.00 69 1020.9
20260506160156 65 11 2.0 4.0 0.00 0.00 0.00 70 1021.0
20260506155655 65 67 1.0 2.0 0.00 0.00 0.00 71 1020.8
20260506155152 64 6 3.0 3.0 0.00 0.00 0.00 71 1020.9
20260506153259 65 51 2.0 4.0 0.00 0.00 0.00 70 1020.8
20260506152756 64 73 0.0 2.0 0.00 0.00 0.00 72 1020.9
20260506152253 63 50 0.0 3.0 0.00 0.00 0.00 72 1020.9
20260506151752 63 27 3.0 3.0 0.00 0.00 0.00 72 1021.0
20260506151248 64 67 2.0 4.0 0.00 0.00 0.00 71 1020.8
20260506150745 63 56 2.0 4.0 0.00 0.00 0.00 72 1020.9
20260506150242 63 64 2.0 3.0 0.00 0.00 0.00 73 1020.8
20260506145739 62 106 2.0 3.0 0.00 0.00 0.00 74 1020.9
20260506145235 62 55 2.0 3.0 0.00 0.00 0.00 75 1020.9
20260506144733 62 57 3.0 3.0 0.00 0.00 0.00 74 1020.9
20260506144230 63 61 3.0 3.0 0.00 0.00 0.00 73 1020.9
20260506143727 62 120 2.0 2.0 0.00 0.00 0.00 79 1020.8
20260506143225 60 74 2.0 3.0 0.00 0.00 0.00 81 1021.0
20260506142723 57 77 2.0 3.0 0.00 0.00 0.00 84 1020.9
20260506142221 56 68 2.0 4.0 0.00 0.00 0.00 83 1020.7
20260506141719 58 113 3.0 3.0 0.00 0.00 0.00 80 1020.8
20260506141217 59 125 2.0 3.0 0.00 0.00 0.00 82 1020.7
20260506140714 58 106 2.0 2.0 0.00 0.00 0.00 85 1020.9
20260506140211 57 138 0.0 2.0 0.00 0.00 0.00 90 1020.8
20260506135708 56 78 2.0 2.0 0.00 0.00 0.00 93 1020.9
20260506135204 54 117 1.0 3.0 0.00 0.00 0.00 95 1020.8
20260506134701 53 89 0.0 3.0 0.00 0.00 0.00 96 1020.7
20260506134157 53 108 2.0 3.0 0.00 0.00 0.00 97 1020.6
20260506133654 51 102 3.0 3.0 0.00 0.00 0.00 97 1020.7
20260506133151 51 110 2.0 2.0 0.00 0.00 0.00 97 1020.6
20260506132648 50 64 1.0 2.0 0.00 0.00 0.00 97 1020.6
20260506132145 50 106 0.0 3.0 0.00 0.00 0.00 97 1020.5
20260506131643 49 123 1.0 3.0 0.00 0.00 0.00 97 1020.5
20260506131139 49 121 2.0 2.0 0.00 0.00 0.00 97 1020.2
20260506130636 50 119 2.0 3.0 0.00 0.00 0.00 97 1020.3
20260506130133 49 105 2.0 4.0 0.00 0.00 0.00 97 1020.4
20260506125631 49 106 1.0 2.0 0.00 0.00 0.00 97 1020.2
20260506125129 49 135 2.0 2.0 0.00 0.00 0.00 97 1020.2
20260506124626 49 107 0.0 3.0 0.00 0.00 0.00 97 1020.1
20260506124124 49 156 1.0 2.0 0.00 0.00 0.00 97 1020.3
20260506123621 49 107 0.0 3.0 0.00 0.00 0.00 97 1020.1
20260506123120 49 120 2.0 2.0 0.00 0.00 0.00 97 1020.0
20260506122616 49 80 3.0 3.0 0.00 0.00 0.00 97 1020.0
20260506122114 48 116 1.0 3.0 0.00 0.00 0.00 97 1020.1
20260506121612 48 117 1.0 2.0 0.00 0.00 0.00 97 1019.9
20260506121108 48 164 2.0 2.0 0.00 0.00 0.00 96 1020.0